User: anonymous   Login
Location: Caltech
(34.1382°N, 118.1253°W)
Time: 08:01:31
(UTC-07:00)
Language:

Iridium 91 - Orbit

View from above orbital plane
View from above orbital plane
View from above satellite
View from above satellite

Ground track
Ground track

The orbit data is extracted from the following two-line orbital elements,

1 27372U 02005A   16120.52339409  .00000095  00000-0  27018-4 0  9999
2 27372  86.3950 100.7382 0002396  93.3693  29.3275 14.34215943752332
Epoch (UTC): 29 April 2016 12:33:41
Eccentricity: 0.0002396
inclination: 86.3950°
perigee height: 776 km
apogee height: 779 km
right ascension of ascending node: 100.7382°
argument of perigee: 93.3693°
revolutions per day: 14.34215943
mean anomaly at epoch: 29.3275°
orbit number at epoch: 75233

The dashed part of the orbit path shows where the satellite is in the earth's shadow,  

DLR